Regional Weather Roundup
Issued by NWS Midland/Odessa, TX

Skip options and go directly to product.
Home | Oldest Version | Previous Version | Current Version | All | Graphics & Text | Save Text | Print | Product List | Glossary On

Skip product version selection by date and time.   
095
ASUS44 KMAF 230210
RWRMAF
MIDLAND AREA WEATHER ROUNDUP
NATIONAL WEATHER SERVICE MIDLAND TX
900 PM CDT WED OCT 22 2014

...IN SOUTHWEST TEXAS AND SOUTHEAST NEW MEXICO...

CITY           SKY/WX    TMP DP  RH WIND       PRES   REMARKS
ALPINE         PTCLDY    62  58  86 S7        30.21R
ANDREWS        FAIR      63  56  79 S8        30.11S
ARTESIA        NOT AVBL
BIG SPRING     MOCLDY    65  54  66 SE12      30.15R
CARLSBAD       CLEAR     63  59  87 S8        30.08R
DRYDEN           N/A     63  57  81 E5        30.12R
FORT STOCKTON  PTCLDY    64  59  83 S16G24    30.10R
GUAD PASS      CLEAR     59  56  89 NE17      30.21R
HOBBS          CLEAR     61  59  94 SE5       30.14R
MARFA          CLOUDY    61  57  88 S3        30.20R
MIDLAND AIRPK  MOCLDY    65  56  72 SE9       30.13R
MIDLAND INTL   MOCLDY    65  54  67 S16       30.12R
ODESSA         PTCLDY    65  52  62 S14       30.13R
PECOS          CLOUDY    67  60  78 E7        30.07R
PRESIDIO       FAIR      72  60  66 NE7       30.07R
SEMINOLE       PTCLDY    60  60  97 SE3       30.13R FOG
SNYDER         MOCLDY    62  58  87 SE9       30.13R
WINK           CLEAR     66  61  84 SE10      30.08R
$$
...OTHER STATIONS IN TEXAS...

CITY           SKY/WX    TMP DP  RH WIND       PRES   REMARKS
ABILENE        PTCLDY    66  57  72 SE6       30.11S
AMARILLO       CLOUDY    62  59  90 S16       30.11R
AUSTIN         MOCLDY    72  60  66 E3        30.08R
BROWNSVILLE    CLEAR     75  68  78 NE5       30.01R
CORPUS CHRISTI PTCLDY    73  65  75 E7        30.04R
DALLAS FTW     CLOUDY    73  56  54 SE7       30.10R
DEL RIO        LGT RAIN  65  63  93 E3        30.07S FOG
EL PASO        PTCLDY    68  55  63 E6        30.10R
HOUSTON INT    CLEAR     67  59  75 CALM      30.08R
LUBBOCK        CLOUDY    63  59  87 S13       30.12R
SAN ANGELO     CLOUDY    65  58  78 CALM      30.12R
SAN ANTONIO    MOCLDY    76  56  49 E5        30.07R
WACO           CLOUDY    68  59  73 E3        30.10R
WICHITA FALLS  NOT AVBL
$$
...OTHER LOCATIONS IN NEW MEXICO...

CITY           SKY/WX    TMP DP  RH WIND       PRES   REMARKS
ALAMAGORDO     NOT AVBL
ALBUQUERQUE    PTCLDY    66  40  38 S6        30.16R
CANNON AFB     CLEAR     60  51  72 S7        30.11R
CLOVIS         PTCLDY    61  55  82 S12       30.14R
HOLLOMAN AFB   PTCLDY    66  53  62 SE3       30.11R
ROSWELL        CLEAR     63  58  83 S8        30.09R
RUIDOSO        CLEAR     57  45  62 CALM      30.25R
SANTA FE       CLEAR     52  38  58 N6        30.19R
TRUTH OR CONSE CLEAR     66  49  54 S5        30.13R
TUCUMCARI      CLEAR     63  54  72 S7        30.06R
$$

USA.gov is the U.S. government's official web portal to all federal, state and local government web resources and services.